STARLINK-32622, 61927

Orbit data source: Space-Track

STARLINK-32622, 61927 is a payload satellite owned by SpaceX/Seattle (US) in LEO that was launched on Mon, 11 Nov 2024 UTC via an FALCON 9 launch vehicle from the Air Force Eastern Test Range (AFETR). Payload-class satellites include a variety of spacecraft equipped with specific instruments for various scientific and technological missions. These include communications satellites like Starlink; space stations such as the ISS; scientific satellites like the Hubble; Earth observation satellites from companies like Planet Labs, Umbra, and HawkEye 360; GPS; miniature CubeSats for education and research; and military/defense satellites.

Loading next visibility...
Identifier
61927, 2024-207R
Orbit
LEO
Country
Flag of USUS
Related business
Manufacturer
SpaceX/Seattle
Mission
Operational Commercial Communications
Bus & Motor
STARLINK V2M, Unknown motor
Mass
730 kg wet, ~700 kg dry
Launch date (UTC)
2024-11-11 (1 year ago)
Launch vehicle
FALCON 9
Launch site
Air Force Eastern Test Range (AFETR)
Object type
Payload
Rocket body
Debris
Shape & HBR
Box + 2 Pan, 17.7 m
Radar Cross Section
33.884 m², Large (>1 m²)

Expand to show TLE details & history
Last TLE update: 11 hours ago

TLE from 11 hours ago
0 STARLINK-32622
1 61927U 24207R   25312.83647031  .00054646  00000-0  19824-2 0  9996
2 61927  42.9981 243.8678 0000572 283.8359  76.2429 15.27551510 56249
Epoch: 2025-11-08T20:04Z
TLE epoch observation values (Epoch: 2025-11-08T20:04:31.034Z)
Latitude
-0.00003°
Longitude
-105.5219°
Altitude
482.816 km
Speed
7.626 km/s
True Right ascension
16h 15m 28s
True Declination
0° 00' 00"
Sunlit
Object was in daylight at epoch
Visualization orbit readout
Latitude
Unknown
Longitude
Unknown
Altitude
Unknown
Speed
Unknown
Apparent Right ascension
Unknown
Apparent Declination
Unknown
Sunlit
N/A
Visualization observer readout
Local Sidereal Time
02:49:30
Azimuth
Unknown
Elevation
Unknown
Doppler factor
Unknown
Orbital elements
Apogee altitude
485.472 km
Perigee altitude
484.687 km
Semi-major axis
6,863.217 km
Eccentricity
0.00006
Inclination
42.9981°
RAAN
243.8678°
Arg. of periapsis
283.8359°
True anomaly
76.24927°
Mean anomaly
76.2429°
Eccentric anomaly
76.24608°
Mean motion
3.81726 °/min
Orbital period
94.31 mins
BSTAR
0.0019824
Loading maneuver chart data...
Computing Atmospheric mass density...
Loading historical data...
Loading historical data...
Loading historical data...
Loading historical data...
Loading historical data...
Loading historical data...
Loading historical data...

Documentation

Showing up to 5 results
|